{"data":{"norad_id":66055,"epoch":"2026-09-20T21:57:53.636832Z","epoch_age_seconds":104469,"freshness":"FRESH","line1":"1 66055U 25234C   26263.91520413  .00002879  00000+0  11842-3 0  9996","line2":"2 66055  97.4168 331.4133 0014578 175.2080 184.9300 15.24881790 51270","mean_motion":15.2488179,"eccentricity":0.0014578,"inclination_deg":97.4168,"raan_deg":331.4133,"arg_perigee_deg":175.208,"mean_anomaly_deg":184.93,"bstar":0.00011842,"rev_number":5127,"period_min":94.433549501565,"perigee_km":481.12638595766,"apogee_km":501.15445119927,"semimajor_km":6869.2774185785,"source":"CELESTRAK","updated_at":"2026-09-21T09:00:15.736680Z"}}